User: anonymous   Login
Location: Unspecified
(0.0000°N, 0.0000°E)
Time: 13:00:56
(UTC+00:00)
Language:

SO-67 - Orbit

View from above orbital plane
View from above orbital plane
View from above satellite
View from above satellite

Ground track
Ground track

The orbit data is extracted from the following two-line orbital elements,

1 35870U 09049F   17344.81013792 +.00005531 +00000-0 +81317-4 0  9993
2 35870 097.0945 000.0941 0003606 104.3138 307.9300 15.55876468460667
Epoch (UTC): 10 December 2017 19:26:35
Eccentricity: 0.0003606
inclination: 97.0945°
perigee height: 397 km
apogee height: 402 km
right ascension of ascending node: 0.0941°
argument of perigee: 104.3138°
revolutions per day: 15.55876468
mean anomaly at epoch: 307.9300°
orbit number at epoch: 46066

The dashed part of the orbit path shows where the satellite is in the earth's shadow,  

DLR